This demonstration page uses our WeatherBlox Daily Observations layout. Learn more.

Left ArrowRight Arrow

Hourly Observations for July 1, 2015

Temp ( °F °C ) Dew Point ( °F °C ) Humidity (%) Winds ( mph kmh ) Pressure ( in mb ) Visibility ( mi km ) Precip ( " mm )
1:53 am 01:53 Partly Cloudy with Mist and Fog 65 18.3 63 17.2 93 93 VRB 3 6 29.89 1012 5 8 N/A
2:53 am 02:53 Clear with Mist and Fog 64 17.8 63 17.2 96 96 VRB 3 6 29.88 1012 5 8 N/A
3:33 am 03:33 Clear with Mist and Fog 62 16.7 61 16.1 96 96 N N/A 29.88 1012 2 3 N/A
3:53 am 03:53 Clear with Mist and Fog 61 16.1 60 15.6 97 97 N N/A 29.88 1012 3 4 N/A
4:34 am 04:34 Clear with Mist and Fog 60 15.6 59 15 96 96 N N/A 29.88 1012 1 2 N/A
4:42 am 04:42 Clear with Fog 60 15.6 59 15 96 96 N N/A 29.88 1012 1 1 N/A
4:53 am 04:53 Clear with Mist and Fog 59 15 58 14.4 96 96 N N/A 29.88 1012 1 2 N/A
4:55 am 04:55 Mostly Cloudy with Mist and Fog 59 15 58 14.4 96 96 N N/A 29.88 1012 1 1 N/A
5:27 am 05:27 Mostly Cloudy with Mist and Fog 59 15 58 14.4 96 96 N N/A 29.91 1013 1 2 N/A
5:49 am 05:49 Partly Cloudy with Mist and Fog 59 15 57 14 94 94 N N/A 29.91 1013 2 3 N/A
5:53 am 05:53 Mostly Clear with Mist and Fog 59 15 58 14.4 96 96 N N/A 29.89 1012 3 4 N/A
6:05 am 06:05 Mostly Clear with Mist and Fog 58 14.4 58 14.4 100 100 N N/A 29.91 1013 2 2 N/A
6:07 am 06:07 Mostly Cloudy with Mist and Fog 58 14.4 58 14.4 100 100 N N/A 29.91 1013 1 1 N/A
6:53 am 06:53 Mostly Cloudy with Fog 58 14.4 58 14.4 100 100 N N/A 29.90 1013 5 8 N/A
7:27 am 07:27 Partly Cloudy with Mist and Fog 61 16.1 61 16.1 100 100 N N/A 29.91 1013 2 2 N/A
7:38 am 07:38 Partly Cloudy with Mist and Fog 62 16.7 62 16.7 100 100 N N/A 29.94 1014 2 3 N/A
7:53 am 07:53 Sunny with Mist and Fog 63 17.2 63 17.2 100 100 N N/A 29.92 1013 3 4 N/A
8:04 am 08:04 Sunny with Mist and Fog 63 17.2 63 17.2 100 100 N N/A 29.94 1014 4 6 N/A
8:53 am 08:53 Mostly Cloudy 67 19.4 61 16.1 81 81 NNW 3 6 29.93 1013 8 13 N/A
9:53 am 09:53 Sunny 70 21.1 60 15.6 71 71 N 5 7 29.95 1014 10 16 N/A
10:53 am 10:53 Sunny 74 23.3 61 16.1 64 64 N 5 7 29.94 1014 10 16 N/A
11:53 am 11:53 Mostly Sunny 76 24.4 62 16.7 62 62 N N/A 29.96 1014 10 16 N/A
12:53 pm 12:53 Mostly Cloudy 78 25.6 63 17.2 60 60 VRB 6 9 29.95 1014 10 16 N/A
1:53 pm 13:53 Sunny 80 26.7 61 16.1 52 52 undefined N/A 29.93 1014 10 16 N/A
2:53 pm 14:53 Mostly Sunny 79 26.1 59 15 50 50 N N/A 29.91 1013 10 16 N/A
3:53 pm 15:53 Partly Cloudy 79 26.1 61 16.1 54 54 N N/A 29.91 1013 10 16 N/A
4:53 pm 16:53 Mostly Cloudy 80 26.7 61 16.1 52 52 VRB 3 6 29.90 1013 10 16 N/A
5:53 pm 17:53 Sunny 79 26.1 61 16.1 54 54 N N/A 29.89 1012 9 14 N/A
6:53 pm 18:53 Sunny 78 25.6 63 17.2 60 60 WSW 6 9 29.89 1012 10 16 N/A
7:53 pm 19:53 Sunny 74 23.3 66 18.9 76 76 N N/A 29.90 1013 10 16 N/A
8:53 pm 20:53 Partly Cloudy 70 21.1 66 18.9 87 87 N N/A 29.91 1013 8 13 N/A
9:53 pm 21:53 Mostly Clear 67 19.4 65 18.3 93 93 N N/A 29.92 1013 8 13 N/A
10:53 pm 22:53 Mostly Cloudy 67 19.4 65 18.3 93 93 N N/A 29.93 1013 8 13 N/A
11:53 pm 23:53 Cloudy 69 20.6 66 18.9 90 90 WNW 3 6 29.93 1013 8 13 N/A

Powered by AerisWeather